カタログに戻る

DELTA 1 DEB

運用中PO
NORAD 21269·DEBRIS·🇺🇸 United States

打ち上げ Jun 12, 1975 から Vandenberg Space Force Base

Loading…

次のパス (今後24時間)

TLE

最新Source: Space-Track

元期: Sep 14, 2026, 02:44 UTC

1 21269U 75052E   26257.11452515  .00000031  00000-0  16023-3 0  9994
2 21269  99.7049 121.8898 0117853 165.5024 359.6068 13.23751422707286

AllMySatでDELTA 1 DEBをリアルタイム追跡

Download on the App Store